Temperature
18 18 18 18 18 18 18 18 18 18 17 17 17 17 17 16 16 17 16 16 16 16 16 16 16 16 16 16 16 16 16 16 16 16 16 16 16 16 16 16 16 16 16
18 18 18 18 18 18 17 17 17 17 17 17 17 17 17 16 16 16 16 16 16 16 15 15 15 16 16 16 16 15 16 15 15 15 16 16 15 15 15 15 15 15 15
18 18 18 17 17 17 17 17 17 17 17 16 16 16 17 16 16 16 16 16 16 15 15 15 15 15 15 15 15 15 15 15 15 15 15 15 15 15 15 15 15 15 15
18 18 17 17 17 17 17 17 17 17 16 16 16 16 16 16 16 16 16 15 15 15 15 15 15 15 15 15 15 15 15 15 14 15 15 15 15 15 14 14 14 15 14
18 17 17 17 17 17 17 17 17 16 16 16 16 15 15 15 15 15 16 15 15 15 15 15 15 15 15 15 14 14 14 14 14 14 15 15 15 14 14 14 14 14 14
18 17 17 17 17 16 16 16 16 16 16 15 15 15 15 15 15 15 15 15 15 15 14 14 14 14 14 14 14 14 14 14 14 14 14 14 14 14 14 14 14 14 14
17 17 17 16 16 16 16 16 16 15 15 15 15 15 15 15 15 15 15 15 15 14 14 14 14 14 14 14 14 14 14 14 14 14 13 13 13 13 13 13 13 13 13
17 17 16 16 16 16 16 16 15 15 15 15 15 15 15 15 15 15 15 14 14 14 14 14 14 14 14 14 14 14 14 13 13 13 13 13 13 13 13 13 13 13 13
17 16 16 16 15 15 15 15 15 15 15 15 15 15 14 14 15 15 15 14 14 14 14 14 14 13 14 14 13 13 13 13 13 13 13 13 13 13 13 12 12 12 13
16 16 16 15 15 15 15 15 15 15 15 15 14 14 14 14 14 14 14 14 14 14 14 14 14 14 13 13 13 13 13 13 13 13 13 13 13 12 12 12 12 12 13
16 16 15 15 15 15 15 15 15 15 15 14 14 14 14 14 14 14 14 14 14 14 14 13 13 13 13 13 13 13 12 12 12 12 12 12 12 12 12 12 12 12 12
16 15 15 15 15 15 15 15 15 15 14 14 14 14 14 14 14 14 14 14 14 13 13 13 13 13 13 13 13 13 13 12 12 12 12 12 12 12 12 11 12 12 11
15 15 15 15 15 14 14 14 14 14 14 14 14 14 14 14 13 13 14 14 13 13 13 13 13 13 13 12 12 12 12 12 12 12 11 11 11 11 11 11 11 11 11
14 14 14 14 14 14 14 14 14 14 14 14 14 14 14 14 13 13 13 13 13 12 12 12 12 12 12 12 12 12 11 11 11 11 11 11 11 11 11 11 11 11 11
14 14 14 14 14 13 13 13 13 13 14 13 13 13 13 13 13 13 13 12 12 12 12 12 12 12 12 12 11 11 11 11 11 11 11 11 10 10 10 11 10 11 11
14 13 14 14 14 13 13 13 13 13 13 13 13 13 13 13 13 13 12 12 12 12 12 12 11 11 11 11 11 11 10 10 10 10 10 10 10 10 10 10 10 10 10
13 13 13 13 13 13 13 13 13 13 13 13 13 13 13 12 12 12 12 12 12 12 11 11 11 11 11 11 11 11 10 10 10 10 10 10 10 10 10 10 10 10 10
13 13 13 13 13 13 13 13 13 13 13 13 13 12 12 12 12 12 12 12 11 11 11 11 11 11 11 11 10 10 10 10 10 10 10 10 10 10 10 10 10 9 10
12 12 12 12 12 12 12 12 13 12 12 12 12 12 12 12 12 11 11 11 11 11 11 10 10 10 10 10 10 10 9 9 9 9 9 9 9 9 9 9 9 9 9
12 12 12 12 12 12 12 12 12 12 12 12 12 12 11 11 11 11 11 10 10 10 10 10 10 10 10 10 9 9 9 9 9 9 9 9 9 9 9 9 9 9 9
12 12 12 12 12 12 12 12 12 12 12 12 11 11 11 11 11 11 11 10 10 10 10 10 10 10 9 9 9 9 9 9 9 9 9 8 9 8 8 9 9 9 9
11 11 11 11 11 11 11 11 11 12 11 11 11 11 11 10 10 10 10 10 10 10 9 9 9 9 9 9 9 9 9 9 8 8 8 8 8 8 8 8 8 8 8
11 11 11 11 11 11 11 11 11 11 11 11 11 11 10 10 10 10 10 9 9 9 9 9 9 9 9 9 8 8 8 8 8 8 8 8 8 8 8 8 8 8 8
11 11 11 11 11 11 11 11 11 11 11 10 10 10 10 10 9 9 9 9 9 9 9 9 8 8 8 8 8 8 8 8 8 8 8 8 8 8 8 8 8 8 8
11 11 11 11 10 10 10 10 10 10 10 10 10 10 10 10 9 9 9 9 9 9 9 8 8 8 8 8 8 8 8 8 8 8 7 7 7 7 7 7 8 8 8
10 10 10 10 10 10 10 10 10 10 10 10 10 10 9 9 9 9 9 9 9 8 8 8 8 8 8 8 8 8 8 8 8 8 7 7 7 7 7 7 7 7 7
Wind_Speed
7 7 6 6 5 5 4 4 3 3 3 3 3 3 3 2 2 3 3 3 4 4 5 5 6 5 5 5 5 5 6 6 7 7 5 5 5 6 4 5 6 6 6
7 7 6 5 5 5 4 4 4 3 4 3 3 3 3 3 3 4 4 4 5 5 5 5 6 5 6 6 5 6 6 6 7 8 6 5 5 5 5 6 6 5 5
7 6 6 6 5 5 4 4 4 4 4 4 4 4 4 4 4 4 5 5 5 6 6 6 6 6 6 5 6 6 6 6 6 7 7 5 5 5 5 6 6 5 6
6 6 6 6 5 5 5 4 4 4 4 4 4 4 5 5 4 5 5 5 6 6 6 6 6 6 7 6 7 7 7 7 6 7 6 6 5 4 5 5 5 4 5
6 6 5 5 5 5 5 4 4 5 5 4 5 5 5 5 4 4 5 6 6 6 6 7 7 6 6 6 7 6 7 7 6 6 7 6 6 4 5 5 6 5 5
6 5 5 5 4 4 4 4 4 4 4 4 5 5 5 4 1 3 6 6 6 6 6 6 7 7 6 7 8 8 8 8 8 7 7 7 7 7 6 6 6 6 6
6 5 5 5 4 4 4 4 4 4 4 4 5 5 5 3 1 4 6 7 6 6 5 6 7 5 6 7 7 9 9 9 9 9 8 8 8 7 7 8 7 7 7
6 5 5 5 5 4 4 3 4 4 4 4 4 4 4 3 2 4 6 7 7 6 6 6 7 6 6 6 8 8 8 7 8 8 7 8 7 7 7 8 8 8 8
6 5 5 5 5 5 4 4 3 3 3 4 4 4 4 4 2 3 6 6 6 6 6 6 6 6 4 5 7 8 7 7 6 6 7 7 7 8 8 7 7 7 7
5 5 5 5 5 5 4 4 4 4 4 4 4 4 5 5 2 2 5 6 5 6 5 5 4 5 4 4 6 7 7 7 6 6 6 7 8 8 9 9 8 7 6
4 5 5 5 5 5 4 4 4 4 4 4 4 4 4 4 3 3 4 5 6 6 6 5 3 2 4 5 7 7 6 7 7 7 6 5 5 5 5 6 6 7 7
4 4 5 5 5 4 4 4 4 4 5 5 4 5 4 4 3 3 4 6 8 6 6 5 3 2 4 6 6 5 6 7 6 5 5 4 4 4 4 4 5 5 6
4 4 4 4 5 5 5 5 5 5 5 4 4 5 4 3 3 5 5 5 6 6 4 3 3 3 4 4 4 4 5 4 4 4 4 4 4 4 4 4 4 5 6
4 4 4 4 5 5 5 6 5 5 5 5 5 5 5 4 3 2 3 3 4 4 3 2 3 4 4 3 3 3 3 3 4 4 4 4 4 4 4 4 4 4 5
4 4 4 4 4 4 5 4 5 4 4 5 5 5 5 4 1 1 3 3 3 3 3 3 3 3 3 2 2 2 3 3 4 4 4 4 4 5 4 4 4 5 5
4 4 4 4 4 4 4 4 3 4 4 5 6 5 4 2 1 1 3 3 3 3 3 3 3 3 3 3 3 3 3 4 4 4 4 4 4 4 4 4 4 5 5
4 4 4 4 4 4 5 5 4 4 5 7 7 6 6 4 3 4 4 4 5 5 4 4 3 3 4 4 4 4 4 4 4 4 4 4 4 4 4 4 4 4 4
4 3 4 4 4 4 5 5 5 5 4 4 5 8 8 7 6 5 4 3 3 3 4 4 4 4 4 4 4 4 5 4 3 3 3 4 4 4 4 4 4 5 5
4 3 3 4 4 4 4 5 5 5 4 4 4 3 6 6 7 6 5 4 4 4 4 4 4 4 4 4 4 4 4 4 3 3 3 4 4 4 4 5 4 3 5
3 3 4 4 5 4 4 4 4 4 4 4 3 3 2 2 2 3 3 4 4 4 4 4 4 4 4 4 3 3 4 3 3 4 3 3 4 4 4 5 4 4 4
3 3 4 5 4 4 4 4 4 3 3 3 3 1 1 3 3 3 3 3 4 4 3 3 3 3 3 3 3 3 4 3 3 3 3 3 4 4 4 4 4 4 3
3 4 4 4 4 4 4 4 4 3 3 3 3 1 2 3 2 2 2 2 3 2 2 2 2 2 2 3 2 3 3 3 3 3 3 4 4 4 4 4 3 3 3
4 5 4 4 4 3 4 3 3 3 3 3 3 2 1 2 2 2 2 3 2 2 2 2 2 2 2 2 2 2 3 3 3 4 4 4 4 4 4 4 4 4 4
4 4 4 4 4 4 3 3 3 3 3 2 2 2 2 2 2 2 2 2 2 2 2 2 2 2 2 2 2 3 2 3 4 4 5 5 5 4 4 4 5 5 4
3 3 3 3 3 3 3 3 2 2 2 1 1 1 1 1 1 2 2 2 2 2 2 2 2 2 2 3 3 3 4 4 5 5 4 4 4 5 5 5 5 4 4
2 2 2 2 2 2 2 2 2 2 2 1 1 1 2 2 2 2 2 1 2 1 2 1 2 2 3 3 3 3 3 3 4 6 5 3 3 3 4 4 4 4 3
Wind_Direction
197 198 204 205 206 211 218 224 229 241 243 249 255 258 258 259 255 252 258 256 259 261 261 259 260 268 271 265 259 261 261 262 267 277 277 276 271 272 267 264 260 254 232
194 197 202 206 209 214 216 220 227 238 245 245 249 250 253 253 253 254 259 260 260 259 261 264 267 264 262 265 265 262 262 259 262 275 281 276 269 267 266 266 265 261 263
184 195 202 210 210 214 217 220 225 232 243 250 248 248 253 256 258 262 263 261 259 261 263 263 267 267 265 267 264 264 266 264 264 268 274 275 272 268 270 267 269 270 266
185 193 200 211 211 214 217 218 223 229 238 244 247 250 253 254 258 266 262 261 260 260 262 265 267 264 263 264 259 257 262 266 262 263 269 269 266 261 262 269 270 259 263
187 193 198 201 203 207 211 216 222 231 237 241 247 250 253 253 261 269 265 261 264 265 265 267 266 265 271 272 274 274 271 267 266 265 267 272 272 271 268 268 270 268 257
188 191 192 197 200 205 210 216 224 233 238 240 245 248 250 258 294 284 276 268 265 264 268 271 269 257 255 254 263 271 272 266 270 269 267 269 272 272 270 267 267 267 269
183 185 190 193 198 208 218 219 228 236 240 243 248 251 253 263 270 274 277 273 268 270 270 273 274 271 260 264 257 250 253 252 256 262 270 273 274 272 271 265 262 264 269
189 193 197 202 206 208 214 224 238 247 250 249 249 253 253 253 235 263 274 265 268 267 266 268 271 279 275 280 275 269 266 260 254 255 266 271 274 277 268 266 266 257 259
195 197 202 209 213 213 220 229 238 242 244 248 247 250 254 259 239 261 278 268 267 268 268 268 272 274 291 294 276 272 270 267 252 249 260 260 264 261 262 262 260 257 262
205 205 206 209 213 216 223 232 238 240 242 247 247 247 251 258 229 248 276 269 273 276 269 259 255 278 291 277 271 271 272 278 283 275 257 245 246 238 233 245 254 259 263
213 211 210 209 212 217 224 229 235 236 239 247 249 247 244 251 215 207 256 270 275 275 276 275 278 249 270 266 269 272 279 286 277 271 268 264 261 255 250 246 255 261 262
210 214 216 219 224 216 222 231 233 237 235 239 247 254 247 234 234 213 226 256 283 275 279 286 298 269 259 258 265 277 272 273 273 275 276 276 273 270 268 270 270 271 272
206 216 222 223 228 230 229 232 234 235 246 253 258 263 263 255 218 198 212 231 259 269 283 311 312 270 255 244 224 244 257 270 277 274 280 283 286 286 279 263 257 258 258
209 218 229 232 232 232 240 238 243 245 251 258 264 269 273 263 267 270 261 247 235 253 278 275 244 242 253 273 257 246 267 283 278 278 282 284 287 283 273 272 268 263 263
219 227 237 242 245 247 247 259 257 258 260 263 272 274 277 277 292 320 281 281 288 298 292 277 281 281 277 281 284 285 284 279 273 278 280 283 281 277 276 277 277 272 268
232 242 250 252 249 251 250 252 243 246 227 227 251 266 276 287 317 267 261 275 274 268 270 272 280 282 284 286 284 283 277 278 278 276 273 274 276 278 281 281 277 271 271
248 257 263 263 256 257 260 260 267 251 216 217 220 225 234 248 244 244 244 255 252 236 248 263 273 280 281 278 278 280 279 276 274 273 275 276 277 276 276 277 280 281 281
250 254 263 265 266 267 267 267 266 273 274 266 220 208 211 217 228 235 230 237 253 234 260 270 274 275 278 281 280 280 278 273 263 267 270 270 269 270 274 277 277 281 280
255 260 264 269 265 266 269 272 274 274 275 280 282 227 202 211 213 218 211 245 264 263 266 274 280 281 281 279 278 277 277 277 275 271 270 272 271 271 275 276 274 272 275
258 265 270 270 266 262 263 269 274 280 282 278 276 279 252 239 252 231 226 247 258 263 271 277 283 287 288 285 280 278 276 278 277 271 277 278 276 275 270 269 274 272 268
265 254 240 258 265 269 271 272 272 272 277 281 285 308 298 267 264 261 253 249 256 265 273 279 285 290 295 295 294 289 287 291 290 288 295 294 290 286 282 277 270 269 272
256 253 249 255 263 267 271 272 275 277 278 284 292 261 182 251 276 279 271 261 258 263 273 279 285 293 310 309 297 294 295 302 305 300 295 290 287 286 284 283 282 280 276
250 250 253 260 263 259 260 268 273 275 281 289 294 298 268 276 277 275 274 276 278 279 280 276 280 291 310 312 309 302 298 303 302 296 286 282 281 279 275 272 269 268 266
251 253 253 257 257 258 259 266 270 270 272 280 283 280 275 269 275 284 285 284 278 280 275 262 266 282 303 304 305 304 314 318 302 288 290 286 284 282 278 274 268 262 259
261 261 264 264 262 258 255 254 258 266 274 279 286 294 299 292 285 283 280 286 292 296 296 280 269 272 289 298 311 331 23 9 326 310 287 283 285 288 284 280 274 270 263
274 279 279 281 271 264 266 272 271 273 271 269 270 275 282 292 298 297 296 292 294 309 313 305 309 311 306 302 337 20 43 2 327 311 294 276 279 290 298 292 284 270 258
Height
1520 1521 1522 1523 1524 1524 1525 1525 1525 1525 1525 1524 1524 1523 1523 1522 1522 1521 1522 1522 1522 1521 1521 1521 1520 1520 1520 1521 1520 1520 1520 1519 1518 1517 1517 1516 1514 1514 1513 1512 1512 1511 1510
1517 1518 1519 1520 1521 1522 1522 1522 1522 1522 1522 1522 1521 1521 1520 1520 1520 1519 1519 1518 1518 1518 1518 1517 1517 1517 1516 1516 1516 1516 1516 1515 1514 1513 1512 1512 1511 1510 1509 1508 1508 1508 1506
1515 1516 1517 1518 1518 1519 1519 1519 1519 1519 1519 1519 1519 1518 1518 1517 1517 1516 1516 1515 1515 1514 1514 1514 1513 1513 1512 1513 1512 1512 1512 1512 1510 1509 1508 1508 1507 1506 1505 1504 1504 1502 1502
1513 1514 1514 1515 1515 1516 1516 1516 1516 1516 1516 1516 1516 1515 1515 1515 1514 1513 1512 1512 1511 1511 1510 1510 1510 1509 1508 1508 1508 1507 1507 1507 1506 1505 1505 1504 1503 1502 1501 1501 1500 1499 1498
1510 1511 1512 1512 1513 1513 1513 1513 1513 1513 1513 1513 1512 1512 1511 1512 1511 1510 1509 1509 1508 1507 1506 1506 1506 1505 1504 1504 1504 1504 1503 1502 1502 1501 1501 1500 1499 1498 1498 1497 1496 1495 1494
1508 1509 1509 1509 1510 1510 1510 1510 1510 1510 1510 1510 1509 1508 1508 1508 1507 1506 1506 1505 1504 1504 1503 1502 1502 1502 1501 1500 1499 1499 1499 1498 1498 1497 1496 1495 1495 1494 1493 1493 1492 1491 1490
1505 1505 1506 1507 1507 1507 1508 1507 1507 1507 1506 1506 1506 1505 1505 1504 1503 1503 1503 1502 1501 1500 1499 1499 1499 1499 1497 1496 1495 1495 1494 1493 1493 1492 1491 1490 1490 1490 1489 1488 1487 1486 1486
1502 1502 1503 1504 1504 1504 1504 1504 1504 1503 1503 1503 1503 1502 1501 1501 1500 1500 1499 1498 1498 1497 1496 1495 1495 1494 1493 1492 1491 1490 1489 1488 1487 1487 1486 1485 1485 1484 1484 1484 1482 1481 1480
1499 1499 1500 1501 1501 1501 1501 1501 1500 1500 1500 1500 1499 1499 1498 1498 1497 1496 1496 1495 1494 1493 1492 1492 1491 1490 1489 1488 1487 1486 1485 1484 1483 1482 1481 1480 1479 1479 1479 1479 1478 1478 1477
1496 1496 1497 1498 1498 1498 1498 1498 1497 1497 1497 1497 1496 1496 1495 1495 1494 1493 1492 1492 1491 1490 1489 1488 1487 1486 1484 1483 1483 1482 1480 1480 1479 1478 1476 1475 1475 1474 1474 1474 1474 1474 1473
1493 1494 1494 1495 1495 1495 1495 1495 1494 1494 1494 1494 1493 1493 1492 1491 1490 1489 1489 1488 1487 1486 1485 1484 1483 1481 1480 1479 1478 1478 1477 1476 1475 1474 1473 1472 1471 1471 1470 1470 1469 1469 1469
1489 1491 1491 1492 1492 1493 1492 1492 1492 1491 1491 1491 1490 1490 1489 1488 1487 1486 1485 1484 1483 1482 1481 1480 1479 1477 1476 1475 1474 1473 1473 1472 1471 1471 1469 1468 1468 1467 1466 1466 1465 1464 1464
1486 1487 1488 1488 1489 1489 1489 1489 1489 1488 1488 1488 1488 1487 1486 1485 1483 1482 1481 1479 1478 1478 1477 1475 1474 1473 1472 1471 1470 1469 1469 1469 1468 1467 1466 1465 1464 1463 1463 1462 1461 1460 1459
1483 1484 1485 1485 1485 1485 1485 1486 1486 1485 1485 1484 1484 1483 1482 1482 1480 1479 1478 1477 1475 1474 1473 1471 1470 1469 1469 1468 1467 1466 1466 1465 1464 1464 1463 1462 1461 1460 1459 1459 1458 1457 1456
1480 1480 1481 1482 1482 1482 1482 1482 1481 1481 1480 1480 1480 1479 1478 1478 1477 1476 1475 1474 1472 1471 1469 1468 1468 1467 1466 1465 1465 1464 1463 1462 1461 1460 1459 1459 1458 1457 1457 1456 1455 1454 1453
1477 1478 1478 1479 1479 1479 1478 1478 1477 1477 1476 1475 1474 1474 1474 1474 1473 1472 1472 1471 1469 1468 1466 1466 1465 1464 1464 1463 1462 1461 1460 1459 1458 1457 1456 1455 1455 1454 1453 1452 1452 1451 1450
1474 1475 1476 1476 1476 1475 1475 1475 1473 1473 1471 1471 1470 1470 1470 1469 1469 1469 1468 1467 1466 1465 1464 1463 1462 1461 1461 1460 1459 1458 1458 1456 1455 1454 1453 1452 1452 1451 1450 1449 1448 1448 1447
1471 1472 1472 1472 1472 1472 1472 1471 1470 1469 1468 1467 1467 1466 1466 1466 1466 1465 1464 1464 1463 1462 1461 1460 1459 1459 1458 1457 1456 1455 1455 1454 1452 1451 1450 1449 1449 1448 1447 1446 1445 1445 1444
1468 1468 1468 1468 1469 1469 1468 1468 1467 1466 1465 1464 1464 1463 1463 1462 1462 1461 1461 1461 1460 1459 1459 1458 1457 1456 1455 1454 1453 1452 1452 1451 1449 1449 1448 1447 1446 1445 1444 1444 1443 1442 1441
1465 1465 1465 1465 1466 1465 1465 1464 1464 1463 1462 1462 1461 1460 1460 1459 1459 1459 1458 1458 1457 1457 1456 1455 1454 1453 1451 1451 1450 1449 1449 1448 1447 1446 1445 1444 1444 1443 1442 1441 1440 1439 1439
1462 1462 1462 1462 1463 1462 1461 1461 1460 1460 1460 1459 1458 1457 1456 1456 1456 1456 1455 1455 1454 1453 1453 1452 1451 1450 1449 1448 1447 1446 1446 1445 1444 1444 1443 1442 1441 1440 1439 1439 1438 1437 1437
1459 1459 1459 1459 1459 1459 1458 1458 1458 1457 1457 1456 1456 1455 1454 1454 1454 1453 1453 1452 1451 1451 1450 1449 1448 1447 1446 1445 1444 1444 1443 1442 1441 1441 1440 1439 1438 1438 1437 1436 1435 1435 1434
1456 1456 1456 1456 1456 1456 1455 1455 1455 1455 1454 1454 1453 1453 1453 1452 1452 1451 1451 1450 1449 1448 1447 1446 1445 1444 1444 1443 1442 1441 1440 1440 1439 1438 1437 1437 1436 1435 1434 1433 1433 1432 1432
1454 1454 1453 1453 1453 1453 1453 1452 1452 1452 1452 1452 1451 1451 1451 1450 1450 1449 1448 1448 1447 1446 1445 1444 1443 1442 1441 1441 1440 1439 1438 1437 1437 1436 1435 1434 1433 1432 1431 1431 1430 1430 1429
1450 1451 1451 1451 1451 1451 1450 1450 1450 1450 1450 1449 1449 1449 1449 1448 1448 1447 1446 1445 1444 1443 1442 1442 1441 1441 1440 1439 1438 1437 1436 1435 1434 1433 1432 1431 1430 1429 1428 1428 1427 1427 1426
1448 1448 1448 1448 1448 1448 1448 1448 1448 1447 1447 1447 1447 1447 1446 1446 1445 1445 1444 1443 1442 1441 1440 1439 1439 1438 1438 1437 1436 1434 1433 1432 1431 1430 1429 1428 1427 1427 1426 1425 1424 1424 1423